Regional Weather Roundup
Issued by NWS

Home | Current Version | Previous Version | Text Only | Print | Product List | Glossary On
Versions: 1 2 3 4 5 6 7 8 9 10 11 12 13 14 15 16 17 18 19 20 21 22 23 24 25 26 27 28 29 30 31 32 33 34 35 36 37 38 39 40 41 42 43 44 45 46 47 48 49 50
000
ASUS44 KBMX 282210
RWRAL

ALABAMA REGIONAL WEATHER ROUNDUP
NATIONAL WEATHER SERVICE BIRMINGHAM AL
500 PM CDT SAT MAR 28 2015

NOTE: "FAIR" INDICATES FEW OR NO CLOUDS BELOW 12,000 FEET
WITH NO SIGNIFICANT WEATHER AND/OR OBSTRUCTIONS TO VISIBILITY.

THE REMARK "TC" DENOTES TEMPERATURE IN DEGREES CELSIUS.

ALZ001>011-014-016>018-020-282300-
NORTH ALABAMA

CITY           SKY/WX    TMP DP  RH WIND       PRES   REMARKS
MUSCLE SHOALS  CLOUDY    47  15  27 CALM      30.25S
HUNTSVILLE     MOSUNNY   50  18  28 N6        30.23S
DECATUR        MOSUNNY   48  15  26 NW10      30.24S
HALEYVILLE     PTSUNNY   44  16  32 CALM      30.25S
GADSDEN        CLOUDY    48  18  29 NW10G17   30.20S
$$

ALZ012-013-022-023-030>036-040>044-282300-
WEST CENTRAL ALABAMA

CITY           SKY/WX    TMP DP  RH WIND       PRES   REMARKS
TUSCALOOSA     CLOUDY    47  25  42 W6        30.26R
$$

ALZ015-024>027-033>036-040>044-282300-
CENTRAL ALABAMA

CITY           SKY/WX    TMP DP  RH WIND       PRES   REMARKS
BIRMINGHAM     CLOUDY    49  17  28 W9        30.23F
MONTGOMERY     CLOUDY    51  27  39 W10       30.23R
SHELBY CO ARPT CLOUDY    50  22  33 NW8G17    30.23R
MAXWELL AFB    CLOUDY    51  25  36 NW7       30.22R
GREENVILLE     CLOUDY    51  27  39 N10       30.21R
$$

ALZ019-021-028-029-037-038-045>048-282300-
EAST CENTRAL ALABAMA

CITY           SKY/WX    TMP DP  RH WIND       PRES   REMARKS
ANNISTON       PTSUNNY   50  11  20 NW8       30.20R
ALEXANDER CITY MOSUNNY   54  10  17 NW13      30.18S
AUBURN         PTSUNNY   52  18  25 NW10G22   30.20R
$$

ALZ051>064-282300-
SOUTHWEST ALABAMA

CITY           SKY/WX    TMP DP  RH WIND       PRES   REMARKS
MOBILE         MOSUNNY   64  35  34 VRB6      30.18F
BROOKLEY FIELD SUNNY     63  35  35 E7        30.19F
EVERGREEN      CLOUDY    57  29  34 NW8       30.20S
$$

ALZ049-050-065>069-282300-
SOUTHEAST ALABAMA

CITY           SKY/WX    TMP DP  RH WIND       PRES   REMARKS
DOTHAN         CLOUDY    57  28  33 NW21G26   30.20R
OZARK          SUNNY     58  25  28 N15G23    30.17R
TROY           CLOUDY    55  28  35 NW13G20   30.20F
EUFAULA        CLOUDY    57  21  24 W8        30.16R
$$


USA.gov is the U.S. government's official web portal to all federal, state and local government web resources and services.